TimeCDT,TemperatureF,Dew PointF,Humidity,Sea Level PressureIn,VisibilityMPH,Wind Direction,Wind SpeedMPH,Gust SpeedMPH,PrecipitationIn,Events,Conditions,WindDirDegrees,DateUTC
12:53 AM,84.9,75.0,72,29.99,10.0,SSE,12.7,-,N/A,,Clear,150,2013-06-23 05:53:00
1:53 AM,84.9,75.0,72,29.98,10.0,SSE,9.2,-,N/A,,Clear,150,2013-06-23 06:53:00
2:53 AM,84.9,73.9,69,29.97,10.0,SSE,11.5,-,N/A,,Partly Cloudy,160,2013-06-23 07:53:00
4:53 AM,84.9,75.0,72,29.96,10.0,SSE,11.5,-,N/A,,Mostly Cloudy,160,2013-06-23 09:53:00
5:53 AM,84.0,73.9,72,29.96,10.0,SSE,9.2,-,N/A,,Partly Cloudy,160,2013-06-23 10:53:00
6:53 AM,84.0,73.9,72,29.96,10.0,SSE,8.1,-,N/A,,Scattered Clouds,160,2013-06-23 11:53:00
7:11 AM,84.2,75.2,74,29.97,10.0,South,9.2,-,N/A,,Mostly Cloudy,170,2013-06-23 12:11:00
7:53 AM,87.1,75.0,67,29.98,10.0,SSE,11.5,-,N/A,,Mostly Cloudy,160,2013-06-23 12:53:00
8:53 AM,88.0,75.0,65,29.99,10.0,SSE,9.2,-,N/A,,Scattered Clouds,160,2013-06-23 13:53:00
9:53 AM,89.1,72.0,57,30.00,10.0,South,17.3,20.7,N/A,,Mostly Cloudy,170,2013-06-23 14:53:00
10:53 AM,89.1,73.9,61,30.01,10.0,South,12.7,-,0.00,,Scattered Clouds,180,2013-06-23 15:53:00
11:53 AM,91.9,75.0,58,30.01,10.0,South,12.7,-,N/A,,Clear,190,2013-06-23 16:53:00
12:53 PM,91.9,73.0,54,30.01,10.0,South,11.5,20.7,N/A,,Clear,180,2013-06-23 17:53:00
1:53 PM,91.9,73.0,54,30.00,10.0,South,13.8,-,N/A,,Clear,170,2013-06-23 18:53:00
2:53 PM,91.9,72.0,52,29.99,10.0,South,17.3,24.2,N/A,,Clear,170,2013-06-23 19:53:00
3:53 PM,91.0,72.0,53,29.97,10.0,South,13.8,21.9,N/A,,Clear,180,2013-06-23 20:53:00
4:53 PM,91.0,72.0,53,29.96,10.0,South,16.1,-,N/A,,Clear,170,2013-06-23 21:53:00
5:53 PM,91.0,73.9,57,29.94,10.0,SSE,13.8,-,N/A,,Partly Cloudy,160,2013-06-23 22:53:00
6:53 PM,90.0,73.0,57,29.94,10.0,South,13.8,23.0,N/A,,Scattered Clouds,170,2013-06-23 23:53:00
7:53 PM,88.0,73.0,61,29.95,10.0,SSE,13.8,-,N/A,,Partly Cloudy,150,2013-06-24 00:53:00
8:53 PM,86.0,73.9,67,29.95,10.0,SSE,12.7,-,N/A,,Partly Cloudy,150,2013-06-24 01:53:00
9:53 PM,86.0,75.0,70,29.97,10.0,SSE,11.5,20.7,N/A,,Partly Cloudy,150,2013-06-24 02:53:00
10:53 PM,86.0,73.9,67,29.99,10.0,SSE,15.0,-,N/A,,Partly Cloudy,150,2013-06-24 03:53:00
11:53 PM,86.0,73.9,67,29.99,10.0,SSE,11.5,20.7,N/A,,Partly Cloudy,160,2013-06-24 04:53:00